Time,TemperatureF,DewpointF,PressureIn,WindDirection,WindDirectionDegrees,WindSpeedMPH,WindSpeedGustMPH,Humidity,HourlyPrecipIn,Conditions,Clouds,dailyrainin,SoftwareType,DateUTC
2013-07-14 08:12:00,64.0,62.0,30.24,South,182,0.0,1.0,94,0.00,,,0.00,,2013-07-14 12:12:00,
2013-07-14 08:22:00,65.0,63.0,30.24,South,182,0.0,1.0,92,0.00,,,0.00,,2013-07-14 12:22:00,
2013-07-14 08:33:00,66.0,63.0,30.24,South,182,0.0,2.0,90,0.00,,,0.00,,2013-07-14 12:33:00,
2013-07-14 08:52:00,69.0,64.0,30.24,South,180,0.0,1.0,85,0.00,,,0.00,,2013-07-14 12:52:00,
2013-07-14 09:01:00,71.0,66.0,30.24,South,171,0.0,4.0,83,0.00,,,0.00,,2013-07-14 13:01:00,
2013-07-14 09:11:00,72.0,66.0,30.24,SE,142,1.0,5.0,81,0.00,,,0.00,,2013-07-14 13:11:00,
2013-07-14 09:22:00,72.0,65.0,30.24,ESE,107,4.0,7.0,79,0.00,,,0.00,,2013-07-14 13:22:00,
2013-07-14 09:32:00,73.0,66.0,30.24,SE,133,1.0,6.0,79,0.00,,,0.00,,2013-07-14 13:32:00,
2013-07-14 09:42:00,74.0,67.0,30.24,ESE,119,1.0,5.0,78,0.00,,,0.00,,2013-07-14 13:42:00,
2013-07-14 09:53:00,75.0,67.0,30.24,ESE,119,0.0,1.0,77,0.00,,,0.00,,2013-07-14 13:53:00,
2013-07-14 10:02:00,75.0,67.0,30.24,ESE,119,0.0,1.0,77,0.00,,,0.00,,2013-07-14 14:02:00,
2013-07-14 10:11:00,77.0,68.0,30.24,WSW,252,3.0,4.0,74,0.00,,,0.00,,2013-07-14 14:11:00,
2013-07-14 10:23:00,77.0,68.0,30.24,SW,218,0.0,4.0,74,0.00,,,0.00,,2013-07-14 14:23:00,
2013-07-14 10:33:00,78.0,69.0,30.24,SSW,211,1.0,6.0,73,0.00,,,0.00,,2013-07-14 14:33:00,
2013-07-14 10:43:00,78.0,69.0,30.24,South,183,1.0,7.0,73,0.00,,,0.00,,2013-07-14 14:43:00,
2013-07-14 10:53:00,79.0,69.0,30.24,SSW,205,3.0,8.0,71,0.00,,,0.00,,2013-07-14 14:53:00,
2013-07-14 11:01:00,79.0,69.0,30.24,SSW,205,3.0,8.0,71,0.00,,,0.00,,2013-07-14 15:01:00,
2013-07-14 11:12:00,79.0,69.0,30.24,SSW,205,3.0,8.0,71,0.00,,,0.00,,2013-07-14 15:12:00,
2013-07-14 11:22:00,81.0,69.0,30.24,WSW,242,1.0,6.0,68,0.00,,,0.00,,2013-07-14 15:22:00,
2013-07-14 11:32:00,81.0,69.0,30.24,WSW,250,4.0,11.0,68,0.00,,,0.00,,2013-07-14 15:32:00,
2013-07-14 11:42:00,81.0,69.0,30.24,SW,227,7.0,9.0,66,0.00,,,0.00,,2013-07-14 15:42:00,
2013-07-14 11:53:00,82.0,69.0,30.25,West,264,3.0,8.0,64,0.00,,,0.00,,2013-07-14 15:53:00,
2013-07-14 12:01:00,82.0,69.0,30.24,West,260,2.0,11.0,64,0.00,,,0.00,,2013-07-14 16:01:00,
2013-07-14 12:11:00,82.0,69.0,30.24,West,260,2.0,11.0,64,0.00,,,0.00,,2013-07-14 16:11:00,
2013-07-14 12:22:00,82.0,69.0,30.24,West,260,2.0,11.0,64,0.00,,,0.00,,2013-07-14 16:22:00,
2013-07-14 12:32:00,82.0,69.0,30.24,West,260,2.0,11.0,64,0.00,,,0.00,,2013-07-14 16:32:00,
2013-07-14 12:43:00,82.0,69.0,30.24,West,260,2.0,11.0,64,0.00,,,0.00,,2013-07-14 16:43:00,
2013-07-14 16:22:00,88.0,66.0,30.22,South,184,3.0,-999.0,49,-99.99,,,-99.99,,2013-07-14 20:22:00,
2013-07-14 16:32:00,88.0,67.0,30.21,West,267,1.0,9.0,50,0.00,,,0.00,,2013-07-14 20:32:00,
2013-07-14 16:43:00,88.0,66.0,30.21,SSW,213,1.0,8.0,49,0.00,,,0.00,,2013-07-14 20:43:00,
2013-07-14 16:53:00,88.0,66.0,30.21,SSW,213,1.0,8.0,49,0.00,,,0.00,,2013-07-14 20:53:00,
2013-07-14 17:02:00,88.0,66.0,30.21,SSW,213,1.0,8.0,49,0.00,,,0.00,,2013-07-14 21:02:00,
2013-07-14 17:11:00,88.0,66.0,30.21,SSW,213,1.0,8.0,49,0.00,,,0.00,,2013-07-14 21:11:00,
2013-07-14 17:22:00,88.0,66.0,30.21,SSW,213,1.0,8.0,49,0.00,,,0.00,,2013-07-14 21:22:00,
2013-07-14 17:53:00,88.0,67.0,30.21,SW,227,3.0,9.0,50,0.00,,,0.00,,2013-07-14 21:53:00,
2013-07-14 18:01:00,88.0,68.0,30.21,West,274,2.0,8.0,51,0.00,,,0.00,,2013-07-14 22:01:00,
2013-07-14 18:11:00,88.0,67.0,30.21,WSW,242,3.0,11.0,50,0.00,,,0.00,,2013-07-14 22:11:00,
2013-07-14 18:22:00,88.0,68.0,30.21,SW,223,2.0,8.0,51,0.00,,,0.00,,2013-07-14 22:22:00,
2013-07-14 18:32:00,87.0,66.0,30.21,WSW,251,3.0,6.0,50,0.00,,,0.00,,2013-07-14 22:32:00,
2013-07-14 18:42:00,87.0,66.0,30.21,West,259,1.0,6.0,50,0.00,,,0.00,,2013-07-14 22:42:00,
2013-07-14 18:53:00,87.0,66.0,30.21,West,259,1.0,6.0,50,0.00,,,0.00,,2013-07-14 22:53:00,
2013-07-14 19:01:00,87.0,66.0,30.21,West,259,1.0,6.0,50,0.00,,,0.00,,2013-07-14 23:01:00,
2013-07-14 19:11:00,87.0,66.0,30.21,West,259,1.0,6.0,50,0.00,,,0.00,,2013-07-14 23:11:00,
2013-07-14 19:22:00,87.0,66.0,30.21,West,259,1.0,6.0,50,0.00,,,0.00,,2013-07-14 23:22:00,